This is the latest recevied weather packets stored in our database for station/object R1ZAAG-14. If no packets are shown the sender has not sent any weather packets the latest 10 day(s).
| Time | Temp. | Humidity | Pressure | Rain* | Wind** | Luminosity | Snow |
|---|---|---|---|---|---|---|---|
| 1777836371 | 2.22° C | 51% | 1001.8 hPa | - | - | - | - |
| 1777836366 | 2.22° C | 51% | 1001.8 hPa | - | - | - | - |
| 1777835470 | 2.78° C | 51% | 1001.8 hPa | - | - | - | - |
| 1777835465 | 2.78° C | 51% | 1001.8 hPa | - | - | - | - |
| 1777834568 | 3.33° C | 49% | 1001.8 hPa | - | - | - | - |
| 1777834563 | 3.33° C | 49% | 1001.8 hPa | - | - | - | - |
| 1777833668 | 5° C | 47% | 1001.6 hPa | - | - | - | - |
| 1777833662 | 5° C | 47% | 1001.6 hPa | - | - | - | - |
| 1777832769 | 6.11° C | 45% | 1001.6 hPa | - | - | - | - |
| 1777832762 | 6.11° C | 45% | 1001.6 hPa | - | - | - | - |
| 1777831868 | 6.67° C | 44% | 1001.5 hPa | - | - | - | - |
| 1777831862 | 6.67° C | 44% | 1001.5 hPa | - | - | - | - |
| 1777830966 | 7.78° C | 43% | 1001.7 hPa | - | - | - | - |
| 1777830961 | 7.78° C | 43% | 1001.7 hPa | - | - | - | - |
| 1777830065 | 6.11° C | 46% | 1001.4 hPa | - | - | - | - |
| 1777830059 | 6.11° C | 46% | 1001.4 hPa | - | - | - | - |
| 1777829167 | 7.22° C | 43% | 1001.2 hPa | - | - | - | - |
| 1777829159 | 7.22° C | 43% | 1001.2 hPa | - | - | - | - |
| 1777828264 | 9.44° C | 40% | 1001 hPa | - | - | - | - |
| 1777828258 | 9.44° C | 40% | 1001 hPa | - | - | - | - |
| 1777827368 | 9.44° C | 39% | 1001.2 hPa | - | - | - | - |
| 1777827357 | 9.44° C | 39% | 1001.2 hPa | - | - | - | - |
| 1777826467 | 10.56° C | 39% | 1000.9 hPa | - | - | - | - |
| 1777826457 | 10.56° C | 39% | 1000.9 hPa | - | - | - | - |
| 1777825576 | 11.11° C | 39% | 1000.8 hPa | - | - | - | - |
* Rain since midnight (hover to see other rain measurements)
** Current wind speed in m/s (hover to see current wind gust speed)